Voltar ao catálogo

FENGYUN 1C DEB

AtivoSSO
NORAD 36184·DEBRIS·🇨🇳 China

Lançado May 10, 1999 de Taiyuan Satellite Launch Center

Loading…

Próximas Passagens (próximas 24 horas)

TLE

EnvelhecendoSource: Space-Track

Época: Sep 9, 2026, 17:35 UTC

1 36184U 99025DTH 26252.73319167  .00001825  00000-0  97421-3 0  9993
2 36184  98.5561 234.8559 0126732 288.2954  70.4465 14.10446093663321

Acompanhe FENGYUN 1C DEB em tempo real com AllMySat

Download on the App Store